sat.trackr.live / text

‹ back to catalog

IRIDE-MS1-EAGLET 2-9

NORAD 68449 · 2026-067AK

PAYLOAD ACTIVE UNKNOWN

§ Identity

Operator
Country
IT
Launch date
2026-03-30
Launch site
AFWTR
Launch vehicle
Mass (kg)
RCS (m²)

External: N2YO · Heavens-Above · Gunter

§ Orbital elements

Epoch: 2026-05-25T03:48:35.523072Z

Period
94.88 min
Inclination
97.4496°
Eccentricity
0.0005187
Mean motion
15.17716991 rev/d
Perigee alt
509.2 km
Apogee alt
516.3 km
Semi-major
6,890.9 km
B*
3.4519e-4
RAAN
103.8907°
Arg perigee
132.2236°
Mean anomaly
227.9439°
Rev number
844

§ Raw data

IRIDE-MS1-EAGLET 2-91 68449U 26067AK  26145.15874448  .00006899  00000+0  34519-3 0  99972 68449  97.4496 103.8907 0005187 132.2236 227.9439 15.17716991  8449

JSON: /api/v1/satellites/68449 · /tle

For live sub-satellite position, see the globe view (requires WebGL).

§ Visibility from observer

Set your observer location to see the next 7 days of passes ≥ 10°. The values pass through the URL so the page stays shareable.

No JS? Fill the form by hand. The geolocation button needs JavaScript.